MDT,Max TemperatureF,Mean TemperatureF,Min TemperatureF,Max Dew PointF,MeanDew PointF,Min DewpointF,Max Humidity, Mean Humidity, Min Humidity, Max Sea Level PressureIn, Mean Sea Level PressureIn, Min Sea Level PressureIn, Max VisibilityMiles, Mean VisibilityMiles, Min VisibilityMiles, Max Wind SpeedMPH, Mean Wind SpeedMPH, Max Gust SpeedMPH,PrecipitationIn, CloudCover, Events, WindDirDegrees
2011-10-1,83,64,45,45,39,35,71,45,18,30.05,29.97,29.91,10,10,10,17,7,23,0.00,0,,157
2011-10-2,77,63,48,47,41,32,68,45,21,30.01,29.97,29.91,10,10,10,18,6,25,T,2,,213
2011-10-3,81,64,47,51,42,38,77,50,23,30.04,29.95,29.84,10,10,10,22,5,37,0.04,2,Rain,140
2011-10-4,68,59,50,52,48,43,83,66,48,29.84,29.76,29.68,10,10,10,20,8,29,0.05,6,Rain,191
2011-10-5,57,48,38,49,45,37,93,82,71,29.65,29.56,29.47,10,9,2,23,7,29,0.46,7,Rain,199
2011-10-6,39,36,32,38,34,32,100,96,92,29.82,29.67,29.56,10,5,0,15,8,20,0.60,8,Fog-Rain-Snow,199
2011-10-7,42,38,33,41,35,32,100,96,92,30.10,29.93,29.79,10,6,2,15,9,21,0.19,8,Rain-Snow,202
2011-10-8,56,47,38,40,39,35,100,75,50,30.25,30.17,30.09,10,6,0,12,4,14,0.00,7,Fog,118
2011-10-9,56,46,35,38,36,32,100,71,41,30.21,30.11,30.01,10,10,10,13,3,16,0.00,4,,220
2011-10-10,60,47,33,45,38,32,100,72,43,30.01,29.92,29.83,10,9,5,21,8,26,0.19,5,Rain,209
2011-10-11,60,49,37,45,42,32,93,72,51,30.10,29.88,29.79,10,10,10,33,11,43,0.02,6,Rain,217
2011-10-12,58,45,31,37,33,28,92,65,38,30.27,30.20,30.11,10,10,10,20,7,25,0.00,0,,203
2011-10-13,60,47,34,40,35,28,89,65,40,30.18,30.10,29.98,10,10,10,15,4,20,0.00,2,,207
2011-10-14,68,56,44,41,38,34,83,58,32,30.08,29.98,29.92,10,10,10,20,8,26,0.00,2,,213
2011-10-15,66,53,40,44,41,37,92,68,44,29.97,29.94,29.90,10,10,10,18,8,26,0.00,0,,202
2011-10-16,60,52,43,50,45,40,100,81,62,30.08,29.98,29.93,10,9,2,22,9,29,0.25,5,Rain,220
2011-10-17,53,43,32,42,35,30,96,70,44,30.41,30.33,30.08,10,10,10,12,4,16,T,3,,217
2011-10-18,56,43,30,36,32,28,100,69,38,30.50,30.42,30.31,10,10,10,7,2,9,0.00,0,,42
2011-10-19,56,43,29,37,31,26,92,65,38,30.28,30.12,30.01,10,10,6,10,2,13,0.00,0,,48
2011-10-20,59,45,30,39,35,28,92,68,43,30.20,30.14,30.10,10,10,8,14,3,17,0.00,0,,37
2011-10-21,60,49,37,40,38,35,92,68,44,30.23,30.17,30.12,10,10,10,13,5,16,T,3,,211
2011-10-22,60,49,37,40,38,34,89,65,40,30.30,30.23,30.17,10,10,10,18,9,23,0.00,1,,201
2011-10-23,63,48,33,38,36,32,89,64,39,30.27,30.16,30.02,10,10,10,21,8,25,0.00,0,,202
2011-10-24,59,48,36,42,35,28,85,64,43,30.04,29.95,29.87,10,10,10,24,10,37,0.00,1,,196
2011-10-25,47,37,27,28,19,11,70,47,23,30.30,30.18,30.05,10,10,10,13,5,20,0.00,3,,49
2011-10-26,44,32,20,32,15,6,84,53,22,30.39,30.32,30.26,10,10,7,13,5,17,0.00,0,,174
2011-10-27,47,35,23,32,19,15,75,53,31,30.29,30.24,30.17,10,10,10,16,6,22,0.00,1,,205
2011-10-28,49,35,20,24,19,14,91,58,24,30.45,30.32,30.14,10,10,9,14,3,17,0.00,1,,84
2011-10-29,56,44,31,35,25,18,76,53,30,30.21,30.14,30.10,10,10,10,22,9,25,0.00,1,,212
2011-10-30,55,42,28,35,31,25,89,65,41,30.36,30.27,30.19,10,10,10,16,6,22,0.00,0,,190
2011-10-31,58,44,30,39,33,27,92,70,47,30.19,30.07,29.96,10,10,10,26,10,37,T,4,,208